Time,TemperatureF,DewpointF,PressureIn,WindDirection,WindDirectionDegrees,WindSpeedMPH,WindSpeedGustMPH,Humidity,HourlyPrecipIn,Conditions,Clouds,dailyrainin,SoftwareType,DateUTC
2013-02-17 00:05:00,28.0,19.2,29.57,North,0,2.7,-999.0,69,-99.99,,,0.00,Acu-Link.com,2013-02-17 05:05:00,
2013-02-17 00:20:00,27.5,20.3,29.58,North,0,3.7,-999.0,74,-99.99,,,0.00,Acu-Link.com,2013-02-17 05:20:00,
2013-02-17 00:35:00,27.0,20.8,29.58,ENE,67,3.2,-999.0,77,-99.99,,,0.00,Acu-Link.com,2013-02-17 05:35:00,
2013-02-17 00:51:00,26.6,21.3,29.61,NE,45,3.2,-999.0,80,-99.99,,,0.00,Acu-Link.com,2013-02-17 05:51:00,
2013-02-17 01:06:00,26.2,21.2,29.61,SSW,202,2.7,-999.0,81,-99.99,,,0.00,Acu-Link.com,2013-02-17 06:06:00,
2013-02-17 01:21:00,25.5,21.1,29.58,South,180,2.2,-999.0,83,-99.99,,,0.00,Acu-Link.com,2013-02-17 06:21:00,
2013-02-17 01:36:00,25.0,21.7,29.56,NNE,22,2.7,-999.0,87,-99.99,,,0.00,Acu-Link.com,2013-02-17 06:36:00,
2013-02-17 01:52:00,23.9,21.9,29.56,NNE,22,1.1,-999.0,92,-99.99,,,0.00,Acu-Link.com,2013-02-17 06:52:00,
2013-02-17 02:07:00,23.0,20.3,29.54,ENE,67,1.7,-999.0,89,-99.99,,,0.00,Acu-Link.com,2013-02-17 07:07:00,
2013-02-17 02:22:00,22.8,19.5,29.56,NNE,22,4.2,-999.0,87,-99.99,,,0.00,Acu-Link.com,2013-02-17 07:22:00,
2013-02-17 02:37:00,22.5,19.0,29.56,NNE,22,3.7,-999.0,86,-99.99,,,0.00,Acu-Link.com,2013-02-17 07:37:00,
2013-02-17 02:52:00,22.3,18.2,29.54,NNW,337,4.7,-999.0,84,-99.99,,,0.00,Acu-Link.com,2013-02-17 07:52:00,
2013-02-17 03:08:00,21.9,17.8,29.51,East,90,2.7,-999.0,84,-99.99,,,0.00,Acu-Link.com,2013-02-17 08:08:00,
2013-02-17 03:23:00,21.7,17.6,29.51,NE,45,4.7,-999.0,84,-99.99,,,0.00,Acu-Link.com,2013-02-17 08:23:00,
2013-02-17 03:38:00,21.0,18.0,29.52,NNE,22,6.8,-999.0,88,-99.99,,,0.00,Acu-Link.com,2013-02-17 08:38:00,
2013-02-17 03:53:00,20.7,19.0,29.51,ENE,67,1.7,-999.0,93,-99.99,,,0.00,Acu-Link.com,2013-02-17 08:53:00,
2013-02-17 04:17:00,20.5,18.3,29.50,ESE,112,1.7,-999.0,91,-99.99,,,0.00,Acu-Link.com,2013-02-17 09:17:00,
2013-02-17 04:32:00,20.1,17.6,29.49,SW,225,6.8,-999.0,90,-99.99,,,0.00,Acu-Link.com,2013-02-17 09:32:00,
2013-02-17 04:47:00,19.9,17.7,29.51,West,270,3.2,-999.0,91,-99.99,,,0.00,Acu-Link.com,2013-02-17 09:47:00,
2013-02-17 05:03:00,19.8,17.9,29.50,NE,45,4.2,-999.0,92,-99.99,,,0.00,Acu-Link.com,2013-02-17 10:03:00,
2013-02-17 05:18:00,19.4,18.0,29.48,NE,45,3.7,-999.0,94,-99.99,,,0.00,Acu-Link.com,2013-02-17 10:18:00,
2013-02-17 05:33:00,19.2,18.3,29.47,North,0,6.3,-999.0,96,-99.99,,,0.00,Acu-Link.com,2013-02-17 10:33:00,
2013-02-17 05:48:00,18.9,18.0,29.45,ESE,112,4.7,-999.0,96,-99.99,,,0.00,Acu-Link.com,2013-02-17 10:48:00,
2013-02-17 06:03:00,18.5,17.3,29.44,NW,315,4.2,-999.0,95,-99.99,,,0.00,Acu-Link.com,2013-02-17 11:03:00,
2013-02-17 06:19:00,18.3,16.9,29.42,NNE,22,4.2,-999.0,94,-99.99,,,0.00,Acu-Link.com,2013-02-17 11:19:00,
2013-02-17 06:34:00,18.0,16.8,29.43,ENE,67,1.7,-999.0,95,-99.99,,,0.00,Acu-Link.com,2013-02-17 11:34:00,
2013-02-17 06:49:00,17.8,16.6,29.43,SSW,202,9.4,-999.0,95,-99.99,,,0.00,Acu-Link.com,2013-02-17 11:49:00,
2013-02-17 07:04:00,17.6,16.2,29.41,WSW,247,5.3,-999.0,94,-99.99,,,0.00,Acu-Link.com,2013-02-17 12:04:00,
2013-02-17 07:20:00,17.6,16.4,29.41,NNE,22,4.2,-999.0,95,-99.99,,,0.00,Acu-Link.com,2013-02-17 12:20:00,
2013-02-17 07:35:00,17.6,16.2,29.40,South,180,2.7,-999.0,94,-99.99,,,0.00,Acu-Link.com,2013-02-17 12:35:00,
2013-02-17 07:50:00,17.2,15.8,29.39,ENE,67,6.3,-999.0,94,-99.99,,,0.00,Acu-Link.com,2013-02-17 12:50:00,
2013-02-17 08:05:00,17.2,15.8,29.37,NNW,337,4.7,-999.0,94,-99.99,,,0.00,Acu-Link.com,2013-02-17 13:05:00,
2013-02-17 08:20:00,17.2,15.5,29.38,NE,45,7.3,-999.0,93,-99.99,,,0.00,Acu-Link.com,2013-02-17 13:20:00,
2013-02-17 08:36:00,17.2,15.8,29.36,NE,45,3.7,-999.0,94,-99.99,,,0.00,Acu-Link.com,2013-02-17 13:36:00,
2013-02-17 08:51:00,16.9,15.2,29.33,North,0,4.7,-999.0,93,-99.99,,,0.00,Acu-Link.com,2013-02-17 13:51:00,
2013-02-17 09:06:00,16.9,14.7,29.33,ESE,112,5.8,-999.0,91,-99.99,,,0.00,Acu-Link.com,2013-02-17 14:06:00,
2013-02-17 09:21:00,17.2,14.3,29.32,WSW,247,11.4,-999.0,88,-99.99,,,0.00,Acu-Link.com,2013-02-17 14:21:00,
2013-02-17 09:36:00,17.6,13.6,29.30,NE,45,5.3,-999.0,84,-99.99,,,0.00,Acu-Link.com,2013-02-17 14:36:00,
2013-02-17 09:52:00,18.0,14.0,29.31,NW,315,8.9,-999.0,84,-99.99,,,0.00,Acu-Link.com,2013-02-17 14:52:00,
2013-02-17 10:07:00,18.3,13.7,29.31,NW,315,7.8,-999.0,82,-99.99,,,0.00,Acu-Link.com,2013-02-17 15:07:00,
2013-02-17 10:22:00,18.7,13.9,29.32,ENE,67,4.7,-999.0,81,-99.99,,,0.00,Acu-Link.com,2013-02-17 15:22:00,
2013-02-17 10:37:00,19.2,12.6,29.31,SSW,202,4.7,-999.0,75,-99.99,,,0.00,Acu-Link.com,2013-02-17 15:37:00,
2013-02-17 10:53:00,20.3,10.4,29.32,NE,45,6.3,-999.0,65,-99.99,,,0.00,Acu-Link.com,2013-02-17 15:53:00,
2013-02-17 11:08:00,21.0,10.1,29.31,East,90,9.4,-999.0,62,-99.99,,,0.00,Acu-Link.com,2013-02-17 16:08:00,
2013-02-17 11:23:00,21.7,10.0,29.30,ENE,67,8.9,-999.0,60,-99.99,,,0.00,Acu-Link.com,2013-02-17 16:23:00,
2013-02-17 11:38:00,21.9,9.8,29.32,SSW,202,10.4,-999.0,59,-99.99,,,0.00,Acu-Link.com,2013-02-17 16:38:00,
2013-02-17 11:53:00,22.1,9.6,29.30,WNW,292,4.2,-999.0,58,-99.99,,,0.00,Acu-Link.com,2013-02-17 16:53:00,
2013-02-17 12:09:00,21.7,8.1,29.31,NE,45,6.3,-999.0,55,-99.99,,,0.00,Acu-Link.com,2013-02-17 17:09:00,
2013-02-17 12:24:00,21.6,7.6,29.30,NE,45,11.4,-999.0,54,-99.99,,,0.00,Acu-Link.com,2013-02-17 17:24:00,
2013-02-17 12:39:00,21.4,7.0,29.32,NNW,337,10.9,-999.0,53,-99.99,,,0.00,Acu-Link.com,2013-02-17 17:39:00,
2013-02-17 12:54:00,21.0,6.6,29.31,East,90,5.8,-999.0,53,-99.99,,,0.00,Acu-Link.com,2013-02-17 17:54:00,
2013-02-17 13:09:00,21.6,6.3,29.31,North,0,8.3,-999.0,51,-99.99,,,0.00,Acu-Link.com,2013-02-17 18:09:00,
2013-02-17 13:25:00,21.2,5.9,29.32,ENE,67,11.9,-999.0,51,-99.99,,,0.00,Acu-Link.com,2013-02-17 18:25:00,
2013-02-17 13:40:00,21.4,5.7,29.33,North,0,13.0,-999.0,50,-99.99,,,0.00,Acu-Link.com,2013-02-17 18:40:00,
2013-02-17 13:55:00,21.2,5.1,29.34,East,90,9.4,-999.0,49,-99.99,,,0.00,Acu-Link.com,2013-02-17 18:55:00,
2013-02-17 14:10:00,21.4,5.2,29.34,NW,315,10.4,-999.0,49,-99.99,,,0.00,Acu-Link.com,2013-02-17 19:10:00,
2013-02-17 14:25:00,21.0,5.3,29.35,WSW,247,17.1,-999.0,50,-99.99,,,0.00,Acu-Link.com,2013-02-17 19:25:00,
2013-02-17 14:41:00,21.4,4.8,29.34,NW,315,8.9,-999.0,48,-99.99,,,0.00,Acu-Link.com,2013-02-17 19:41:00,
2013-02-17 14:56:00,21.9,4.8,29.36,NE,45,8.9,-999.0,47,-99.99,,,0.00,Acu-Link.com,2013-02-17 19:56:00,
2013-02-17 15:11:00,21.9,4.8,29.36,SW,225,11.9,-999.0,47,-99.99,,,0.00,Acu-Link.com,2013-02-17 20:11:00,
2013-02-17 15:26:00,21.7,3.7,29.36,NNE,22,11.9,-999.0,45,-99.99,,,0.00,Acu-Link.com,2013-02-17 20:26:00,
2013-02-17 15:42:00,21.9,3.9,29.37,WSW,247,17.1,-999.0,45,-99.99,,,0.00,Acu-Link.com,2013-02-17 20:42:00,
2013-02-17 15:57:00,21.9,4.3,29.37,SW,225,14.5,-999.0,46,-99.99,,,0.00,Acu-Link.com,2013-02-17 20:57:00,
2013-02-17 16:12:00,21.9,4.3,29.39,SE,135,9.9,-999.0,46,-99.99,,,0.00,Acu-Link.com,2013-02-17 21:12:00,
2013-02-17 16:27:00,22.1,4.0,29.40,SE,135,6.3,-999.0,45,-99.99,,,0.00,Acu-Link.com,2013-02-17 21:27:00,
2013-02-17 16:43:00,22.3,3.7,29.39,ESE,112,4.2,-999.0,44,-99.99,,,0.00,Acu-Link.com,2013-02-17 21:43:00,
2013-02-17 16:58:00,22.5,3.4,29.40,SSE,157,6.8,-999.0,43,-99.99,,,0.00,Acu-Link.com,2013-02-17 21:58:00,
2013-02-17 17:13:00,22.5,2.4,29.41,NE,45,8.9,-999.0,41,-99.99,,,0.00,Acu-Link.com,2013-02-17 22:13:00,
2013-02-17 17:28:00,22.5,2.9,29.44,NE,45,6.3,-999.0,42,-99.99,,,0.00,Acu-Link.com,2013-02-17 22:28:00,
2013-02-17 17:44:00,22.3,3.2,29.44,NNE,22,6.3,-999.0,43,-99.99,,,0.00,Acu-Link.com,2013-02-17 22:44:00,
2013-02-17 17:59:00,22.3,2.2,29.44,NW,315,3.2,-999.0,41,-99.99,,,0.00,Acu-Link.com,2013-02-17 22:59:00,
2013-02-17 18:14:00,22.1,2.6,29.45,NE,45,12.5,-999.0,42,-99.99,,,0.00,Acu-Link.com,2013-02-17 23:14:00,
2013-02-17 18:29:00,22.1,2.6,29.45,SW,225,8.9,-999.0,42,-99.99,,,0.00,Acu-Link.com,2013-02-17 23:29:00,
2013-02-17 18:45:00,21.9,2.4,29.46,East,90,8.3,-999.0,42,-99.99,,,0.00,Acu-Link.com,2013-02-17 23:45:00,
2013-02-17 19:00:00,21.6,1.6,29.46,SW,225,5.3,-999.0,41,-99.99,,,0.00,Acu-Link.com,2013-02-18 00:00:00,
2013-02-17 19:15:00,21.4,1.9,29.45,SW,225,4.7,-999.0,42,-99.99,,,0.00,Acu-Link.com,2013-02-18 00:15:00,
2013-02-17 19:31:00,21.2,1.2,29.46,NE,45,9.4,-999.0,41,-99.99,,,0.00,Acu-Link.com,2013-02-18 00:31:00,
2013-02-17 19:46:00,21.0,1.0,29.47,ESE,112,10.4,-999.0,41,-99.99,,,0.00,Acu-Link.com,2013-02-18 00:46:00,
2013-02-17 20:01:00,20.7,2.3,29.48,NNE,22,6.3,-999.0,44,-99.99,,,0.00,Acu-Link.com,2013-02-18 01:01:00,
2013-02-17 20:16:00,20.1,1.2,29.47,East,90,10.4,-999.0,43,-99.99,,,0.00,Acu-Link.com,2013-02-18 01:16:00,
2013-02-17 20:31:00,19.6,2.2,29.50,NNW,337,5.8,-999.0,46,-99.99,,,0.00,Acu-Link.com,2013-02-18 01:31:00,
2013-02-17 20:46:00,19.4,1.6,29.50,ENE,67,6.3,-999.0,45,-99.99,,,0.00,Acu-Link.com,2013-02-18 01:46:00,
2013-02-17 21:02:00,18.3,2.4,29.50,NE,45,3.7,-999.0,49,-99.99,,,0.00,Acu-Link.com,2013-02-18 02:02:00,
2013-02-17 21:17:00,17.2,2.6,29.52,WNW,292,6.8,-999.0,52,-99.99,,,0.00,Acu-Link.com,2013-02-18 02:17:00,
2013-02-17 21:32:00,16.9,2.8,29.53,WSW,247,7.3,-999.0,53,-99.99,,,0.00,Acu-Link.com,2013-02-18 02:32:00,
2013-02-17 21:47:00,16.5,2.8,29.55,South,180,11.9,-999.0,54,-99.99,,,0.00,Acu-Link.com,2013-02-18 02:47:00,
2013-02-17 22:02:00,16.5,2.0,29.55,NNE,22,9.9,-999.0,52,-99.99,,,0.00,Acu-Link.com,2013-02-18 03:02:00,
2013-02-17 22:18:00,16.3,1.8,29.57,East,90,6.8,-999.0,52,-99.99,,,0.00,Acu-Link.com,2013-02-18 03:18:00,
2013-02-17 22:33:00,16.0,1.1,29.57,SE,135,5.3,-999.0,51,-99.99,,,0.00,Acu-Link.com,2013-02-18 03:33:00,
2013-02-17 22:48:00,15.6,1.1,29.58,West,270,4.7,-999.0,52,-99.99,,,0.00,Acu-Link.com,2013-02-18 03:48:00,
2013-02-17 23:03:00,15.4,1.0,29.58,West,270,7.3,-999.0,52,-99.99,,,0.00,Acu-Link.com,2013-02-18 04:03:00,
2013-02-17 23:19:00,15.1,1.1,29.60,NNW,337,9.4,-999.0,53,-99.99,,,0.00,Acu-Link.com,2013-02-18 04:19:00,
2013-02-17 23:34:00,14.7,0.7,29.60,NNE,22,6.3,-999.0,53,-99.99,,,0.00,Acu-Link.com,2013-02-18 04:34:00,
2013-02-17 23:49:00,14.5,1.3,29.61,SW,225,8.9,-999.0,55,-99.99,,,0.00,Acu-Link.com,2013-02-18 04:49:00,